Location: Smithers
(54.7670°N, 127.1670°W)
Time: 19:30:40
(UTC-07:00)

Daily predictions for brighter satellites

Satellite Brightness Start Highest point End
(mag) Time Altitude Azimuth Time Altitude Azimuth Time Altitude Azimuth
Cosmos 1378 Rocket 3.9 22:28:03 10° NNW 22:32:21 68° W 22:36:38 10° S
Cosmos 1908 Rocket 3.6 22:28:39 10° S 22:33:03 75° E 22:37:31 10° NNE
Cosmos 1184 Rocket 3.4 22:32:42 10° SSE 22:35:51 40° E 22:39:02 10° NNE
Cosmos 1850 Rocket 4.1 22:31:18 10° NNW 22:36:38 81° ENE 22:41:59 10° SSE
USA 234 4.3 22:32:13 10° E 22:37:00 21° SE 22:41:45 10° S
Cosmos 1733 Rocket 4.0 22:33:48 10° SSW 22:38:07 52° WNW 22:42:26 10° N
USA 245 3.5 22:35:03 10° S 22:38:19 67° WSW 22:42:30 10° NNW
Cosmos 2154 Rocket 4.0 22:34:12 10° S 22:40:25 84° E 22:46:40 10° NNE
SL-08 RB Rocket 3.8 22:36:12 10° SSE 22:40:49 89° ENE 22:45:30 10° NNW
CZ-4 R/B 4.2 22:38:25 10° NNE 22:42:57 43° E 22:47:23 10° S
ATLAS 5 CENTAUR R/B 4.3 22:39:38 10° WNW 22:43:58 21° WSW 22:48:31 10° SSW
Cosmos 1862 3.4 22:43:04 10° S 22:47:10 87° E 22:51:17 10° NNE
COS B Rocket 4.3 22:43:28 10° N 22:47:43 52° W 22:51:39 10° SSW
COSMOS 2487 3.4 22:45:20 10° NW 22:48:50 45° WSW 22:52:18 10° S
Cosmos 2056 Rocket 3.7 22:43:51 10° SSW 22:49:00 74° WNW 22:54:09 10° NNE
ARGOS 3.4 22:44:11 10° S 22:49:32 71° WSW 22:54:55 10° NNW
Cosmos 1825 2.2 22:50:02 10° S 22:53:51 89° ESE 22:57:43 10° NNE
Cosmos 1741 Rocket 4.1 22:49:58 10° NNW 22:55:15 79° WSW 23:00:28 10° SSE
Cosmos 2084 4.3 22:54:13 10° S 22:57:21 24° SE 23:00:31 10° ENE
Cosmos 1833 Rocket 2.8 22:53:17 10° NNW 22:58:56 76° NE 23:04:19 11° SE
Cosmos 1812 3.5 22:56:07 10° N 22:59:47 38° ENE 23:03:04 12° SE
Cosmos 2278 Rocket 2.4 22:55:43 10° S 23:01:10 50° ESE 23:06:40 10° NE
H-2A R/B 4.4 23:00:05 10° SW 23:03:12 19° W 23:06:16 10° NW
Cosmos 1844 3.7 22:58:30 10° SSW 23:04:15 72° ESE 23:10:04 10° NE
YAOGAN 6 4.4 23:02:57 10° SSW 23:05:59 27° W 23:09:02 10° NW
CZ-4C R/B 3.5 23:03:33 10° S 23:07:27 75° WSW 23:11:36 10° NNW
Cosmos 1408 3.0 23:03:53 10° SSW 23:07:32 66° WNW 23:11:12 10° N
Intercosmos 25 2.8 23:07:33 10° S 23:11:00 80° E 23:14:11 10° NNE
Cosmos 1844 Rocket 2.8 23:06:05 10° SW 23:11:46 84° WNW 23:17:27 10° NNE
Cosmos 2366 rocket 4.2 23:06:28 10° S 23:12:35 57° E 23:18:48 10° NNE
Okean 1-7 Rocket 4.5 23:08:59 10° N 23:13:16 38° ENE 23:16:53 13° SE
Cosmos 2082 Rocket 2.3 23:08:14 10° NW 23:13:58 76° WSW 23:19:06 13° SSE
Gbstr 26 Del rocket 3.3 23:08:52 10° W 23:14:02 56° SSW 23:18:15 10° ESE
APEX 4.4 23:11:14 10° S 23:15:00 34° ESE 23:19:49 10° NE
Cosmos 1242 Rocket 3.6 23:11:44 10° NNW 23:15:10 41° W 23:18:38 10° SSW
USA 229 DEB 3.9 23:13:46 10° NW 23:20:48 69° SW 23:27:08 14° SSE
USA 229 3.9 23:13:52 10° NW 23:20:54 69° SW 23:27:15 14° SSE
AVUM R/B 3.4 23:17:57 10° NW 23:21:29 80° NE 23:24:12 16° SE
Okean 1 Rocket 4.4 23:19:26 14° SE 23:22:24 26° E 23:26:07 10° NNE
Okean 2 Rocket 3.3 23:19:12 10° SSW 23:23:37 72° WNW 23:28:04 10° N
NOSS 2-2 (D) 4.1 23:23:08 10° WSW 23:27:35 76° NW 23:33:12 10° NE
Landsat 7 4.5 23:23:02 10° S 23:27:40 52° W 23:32:21 10° NNW
Cosmos 2263 Rocket 4.5 23:23:01 10° W 23:27:55 29° NW 23:32:48 10° NNE
H-2A R/B 2.6 23:26:57 10° S 23:32:18 60° WSW 23:37:34 10° NNW
Cosmos 2297 4.0 23:27:23 10° S 23:32:49 48° ESE 23:38:20 10° NE
BREEZE-M DEB (TANK) 4.1 23:32:20 10° WSW 23:36:00 53° SSE 23:47:42 10° E
Cosmos 2218 Rocket 4.1 23:29:41 10° S 23:36:06 87° E 23:42:33 10° NNE
Cosmos 1420 Rocket 4.0 23:31:23 10° SSW 23:36:38 76° ESE 23:41:52 10° NNE
Cosmos 1486 Rocket 4.2 23:32:09 10° NNW 23:37:30 67° ENE 23:41:49 16° SE
NOSS 3-1 (A) 4.1 23:31:57 10° NW 23:39:07 75° NE 23:47:09 10° ESE
ASTEX 1 3.6 23:35:58 10° NNE 23:40:52 60° E 23:44:49 16° S
IGS 5A 4.0 23:38:15 13° S 23:41:53 53° W 23:46:00 10° NNW
NOSS 2-2 (C) 4.4 23:37:53 10° WSW 23:42:21 65° NNW 23:48:01 10° NE
Okean 1 3.3 23:39:03 10° N 23:43:08 87° E 23:46:07 18° SSE
Terra 2.4 23:39:04 12° S 23:43:25 52° W 23:48:06 10° NNW
Spot 4 4.2 23:39:42 14° S 23:43:54 65° WSW 23:48:46 10° NNW
Cosmos 1727 Rocket 4.2 23:39:23 10° NNW 23:45:32 68° W 23:51:14 12° S
SAR-Lupe-2 4.0 23:45:28 16° S 23:48:09 54° WSW 23:51:42 10° NNW
Cosmos 1452 Rocket 4.3 23:47:10 10° SW 23:52:20 54° NW 23:57:34 10° NNE
